WS6A-13 Weather Reports


Display with metric or nautical units.
time (UTC)temp
F
wind
direction
speed
MPH
gust
MPH
rain 1hr
in
rain 24hr
in
rain mn
in
humidity
%
barometer
mb
20260506004514 60 300 0.0 0.0 0.05 0.65 0.65 95 1005.4
20260506001504 61 300 0.0 0.0 0.03 0.62 0.62 94 1005.1
20260506000004 61 300 0.0 0.0 0.02 0.61 0.61 94 1005.2
20260505234504 61 300 0.0 0.0 0.01 0.60 0.60 94 1005.3
20260505233019 61 300 0.0 0.0 0.02 0.60 0.60 95 1005.2
20260505231504 61 300 0.0 0.0 0.03 0.59 0.59 94 1005.3
20260505230004 61 300 0.0 0.0 0.04 0.59 0.59 94 1005.6
20260505224503 61 300 0.0 0.0 0.04 0.59 0.59 94 1005.7
20260505223005 61 78 0.0 3.0 0.04 0.58 0.58 94 1006.0
20260505221504 61 112 0.0 3.0 0.02 0.56 0.56 94 1006.2
20260505214504 61 311 0.0 0.0 0.02 0.55 0.55 93 1006.1
20260505213004 61 311 0.0 1.0 0.03 0.54 0.54 93 1006.1
20260505211503 62 252 0.0 0.0 0.05 0.54 0.54 93 1006.1
20260505210004 61 252 0.0 0.0 0.08 0.54 0.54 93 1006.1
20260505204504 61 252 0.0 0.0 0.30 0.53 0.53 92 1006.2
20260505203004 61 252 0.0 2.0 0.42 0.51 0.51 91 1006.2
20260505201504 61 271 0.0 1.0 0.40 0.49 0.49 90 1006.2
20260505200004 62 260 0.0 3.0 0.37 0.46 0.46 88 1006.5
20260505194503 65 240 1.0 5.0 0.14 0.23 0.23 82 1006.5
20260505191504 67 249 0.0 0.0 0.00 0.09 0.09 76 1006.1
20260505184504 67 249 0.0 0.0 0.00 0.09 0.09 76 1006.4
20260505183006 67 249 0.0 0.0 0.00 0.09 0.09 74 1006.6
20260505181504 67 229 0.0 0.0 0.00 0.09 0.09 75 1006.9
20260505180004 67 229 0.0 2.0 0.00 0.09 0.09 75 1006.9
20260505174504 67 265 0.0 0.0 0.00 0.09 0.09 74 1007.1
20260505173004 67 265 0.0 0.0 0.00 0.09 0.09 75 1007.1
20260505171504 67 265 0.0 1.0 0.00 0.09 0.09 76 1007.2
20260505170005 66 265 0.0 0.0 0.00 0.09 0.09 78 1007.1
20260505164504 66 265 0.0 0.0 0.00 0.09 0.09 75 1007.2
20260505163023 67 265 0.0 1.0 0.00 0.09 0.09 75 1007.2
20260505161503 67 265 0.0 3.0 0.00 0.09 0.09 73 1007.3
20260505153004 67 234 0.0 3.0 0.00 0.09 0.09 78 1007.0
20260505124503 58 250 0.0 2.0 0.01 0.09 0.09 94 1006.5
20260505123004 58 294 0.0 0.0 0.01 0.09 0.09 93 1006.7
20260505120005 57 233 0.0 2.0 0.01 0.09 0.09 93 1006.6
20260505114503 57 59 0.0 0.0 0.00 0.08 0.08 92 1006.4
20260505113004 57 59 0.0 0.0 0.01 0.08 0.08 92 1006.3
20260505101503 58 59 0.0 3.0 0.05 0.06 0.06 89 1007.0
20260505100004 59 59 0.0 2.0 0.04 0.05 0.05 87 1006.7
20260505094504 60 69 0.0 3.0 0.03 0.04 0.04 85 1006.9
20260505093004 61 46 0.0 0.0 0.00 0.01 0.01 83 1007.0
20260505090004 60 229 0.0 0.0 0.00 0.01 0.01 84 1006.4
20260505084504 60 229 0.0 0.0 0.01 0.01 0.01 83 1005.9
20260505083003 60 229 0.0 0.0 0.01 0.01 0.01 83 1005.7
20260505081504 61 229 0.0 0.0 0.01 0.01 0.01 80 1005.6
20260505080004 62 229 0.0 0.0 0.01 0.01 0.01 77 1005.3
20260505074504 63 229 0.0 0.0 0.00 0.00 0.00 77 1005.2
20260505073004 63 229 0.0 0.0 0.00 0.00 0.00 72 1004.9
20260505071504 64 229 0.0 0.0 0.00 0.00 0.00 72 1005.0
20260505070005 64 229 0.0 0.0 0.00 0.00 0.00 71 1005.0
20260505064503 64 229 0.0 0.0 0.00 0.00 0.00 70 1004.8
20260505061503 65 229 0.0 0.0 0.00 0.00 0.00 70 1004.7
20260505060004 64 229 0.0 0.0 0.00 0.00 0.00 70 1004.5
20260505054503 64 229 0.0 0.0 0.00 0.00 0.00 69 1004.2
20260505053004 65 228 0.0 0.0 0.00 0.00 0.00 69 1004.1
20260505051504 65 227 0.0 0.0 0.00 0.00 0.00 68 1004.2
20260505041504 63 266 0.0 0.0 0.00 0.00 0.00 75 1004.7
20260505040004 63 266 0.0 0.0 0.00 0.00 0.00 75 1004.7
20260505034504 63 266 0.0 0.0 0.00 0.00 0.00 75 1004.8
20260505033004 63 266 0.0 0.0 0.00 0.00 0.00 74 1004.9
20260505031504 63 266 0.0 0.0 0.00 0.00 0.00 75 1004.8
20260505030004 63 254 0.0 0.0 0.00 0.00 0.00 73 1004.8
20260505024504 64 254 0.0 0.0 0.00 0.00 0.00 72 1004.7
20260505021504 65 254 0.0 0.0 0.00 0.00 0.00 71 1004.2
20260505020004 65 254 0.0 0.0 0.00 0.00 0.00 70 1004.0
20260505014504 66 254 0.0 0.0 0.00 0.00 0.00 68 1003.9
20260505013004 66 254 0.0 0.0 0.00 0.00 0.00 66 1003.8
20260505011504 67 254 0.0 0.0 0.00 0.00 0.00 65 1003.7